Zurück zum Katalog

COSMOS 2251 DEB

AktivLEO
NORAD 33924·DEBRIS·🇷🇺 Russia

Gestartet Jun 16, 1993 von Plesetsk Cosmodrome

Loading…

Nächste Überflüge (nächste 24 Stunden)

TLE

AktuellSource: Space-Track

Epoche: Sep 14, 2026, 06:13 UTC

1 33924U 93036ED  26257.25935321  .00000308  00000-0  30936-3 0  9999
2 33924  73.9132 187.2122 0401975 172.6477 188.0778 13.50528078864580

Verfolge COSMOS 2251 DEB in Echtzeit mit AllMySat

Download on the App Store